Location: Treviso
(45.6669°N, 12.2430°E)
Time: 09:17:31
(UTC+01:00)

ISS - Pass Details

Date: 05 December 2021
Orbit: 417 x 422 km, 51.6° (Epoch: 06 December)

Event Time Altitude Azimuth Distance (km) Brightness Sun altitude
Rises 18:47:54 0° 293° (WNW) 2,378 1.0 -23.7°
Reaches altitude 10° 18:50:08 10° 283° (WNW) 1,510 0.0 -24.1°
Enters shadow 18:53:03 31° 225° (SW) 764 -2.1 -24.6°
